Regional Weather Roundup
Issued by NWS

Home | Current Version | Previous Version | Text Only | Print | Product List | Glossary On
Versions: 1 2 3 4 5 6 7 8 9 10 11 12 13 14 15 16 17 18 19 20 21 22 23 24 25 26 27 28 29 30 31 32 33 34 35 36 37 38 39 40 41 42 43 44 45 46 47 48 49 50
000
ASUS45 KABQ 160910
RWRNM
WEATHER ROUNDUP FOR NEW MEXICO
NATIONAL WEATHER SERVICE ALBUQUERQUE NM
300 AM MDT WED APR 16 2014

NOTE: "FAIR" MEANS FEW OR NO CLOUDS BELOW 12,000 FEET AGL WITH NO
       SIGNIFICANT WEATHER OR OBSTRUCTIONS TO VISION.

      THIS PRODUCT IS RELEASED AS TWO VERSIONS.  ONE VERSION NEAR
      THE TOP OF THE HOUR CONTAINING PRELIMINARY DATA FROM ALBUQUERQUE
      AND OTHER STATIONS.  A FINAL VERSION WITH ADDITIONAL DATA IS
      ISSUED ABOUT 10 MINUTES AFTER THE HOUR.

NMZ501-503-504-510>518-161000-
NORTHWEST PLATEAU/NORTHCENTRAL MOUNTAINS

CITY           SKY/WX    TMP DP  RH WIND       PRES   REMARKS
FARMINGTON     CLEAR     31   4  31 NE7       29.87F WCI  24
LOS ALAMOS     CLEAR     48   2  14 SW6       29.94F
SANTA FE       CLEAR     40   8  26 W6        29.90F
TAOS           CLEAR     28   3  34 N6        29.93F WCI  22
ANGEL FIRE     FAIR      39   6  24 NW8G18    29.93S WCI  34

$$
NMZ402-403-502-505>509-161000-
WESTCENTRAL MOUNTAINS/SOUTHWEST MOUNTAINS

CITY           SKY/WX    TMP DP  RH WIND       PRES   REMARKS
GALLUP         CLEAR     31  -2  24 CALM      29.95F
GRANTS         CLEAR     34  -1  22 NW6       29.96S WCI  29
SILVER CITY    CLEAR     41   7  24 N10       29.96F

$$
NMZ407-409-411-412-161000-
SOUTHERN DESERTS

CITY           SKY/WX    TMP DP  RH WIND       PRES   REMARKS
LORDSBURG      FAIR      50   5  16 S8        29.90F
DEMING         CLEAR     43   4  19 NW7       29.90F
LAS CRUCES     CLEAR     45   0  15 CALM      29.92S
HOLLOMAN AFB   PTCLDY    48   6  17 S5        29.90F
ALAMOGORDO     PTCLDY    45   0  15 S6        29.91F
T OR C         CLEAR     46   6  19 W8        29.92F

$$
NMZ519>523-161000-
CENTRAL VALLEYS/CENTRAL HIGHLANDS

CITY           SKY/WX    TMP DP  RH WIND       PRES   REMARKS
ALBUQUERQUE    PTCLDY    46   8  21 SE8       29.90F
DOUBLE EAGLE   CLEAR     36   7  30 NW5       29.92S WCI  32
MORIARTY ARPT  FAIR      38   8  28 SW9       29.92F WCI  32
CLINES CORNERS CLEAR     40   9  28 W18       29.90F WCI  31
BELEN          FAIR      47  10  22 SW12      29.90F
SOCORRO        FAIR      48  12  24 S7        29.91S

$$
NMZ524>526-539-540-161000-
SOUTHCENTRAL MOUNTAINS

CITY           SKY/WX    TMP DP  RH WIND       PRES   REMARKS
RUIDOSO        CLEAR     45   1  16 S8        29.99F

$$
NMZ527>531-161000-
NORTHEAST HIGHLANDS/NORTHEAST PLAINS

CITY           SKY/WX    TMP DP  RH WIND       PRES   REMARKS
LAS VEGAS      CLEAR     38  11  32 SW14      29.88F WCI  30
RATON          PTCLDY    35   8  32 N8        29.81F WCI  29
CLAYTON        PTCLDY    48  15  26 W17       29.75F

$$
NMZ532>537-161000-
EASTCENTRAL PLAINS

CITY           SKY/WX    TMP DP  RH WIND       PRES   REMARKS
TUCUMCARI      PTCLDY    53   6  15 SW22      29.79F
CANNON AFB     CLEAR     42   5  21 SW10      29.85F
CLOVIS AIRPORT MOCLDY    45   9  23 SW15      29.88F

$$
NMZ028-029-538-161000-
SOUTHEAST PLAINS

CITY           SKY/WX    TMP DP  RH WIND       PRES   REMARKS
ROSWELL        PTCLDY    49   9  19 S17       29.86F
ARTESIA        PTCLDY    45   9  23 S10       29.88F
CARLSBAD       CLOUDY    47   8  20 SE5       29.88F
HOBBS          MOCLDY    46  10  23 S12       29.91S


$$



USA.gov is the U.S. government's official web portal to all federal, state and local government web resources and services.